Location: Bessat
(45.8735°N, 1.9924°E)
Time: 12:27:13
(UTC+00:00)

USA 307 - Pass Details

Date: 11 May 2021
Orbit: 566 x 577 km, 54.0° (Epoch: 10 May)

Event Time Altitude Azimuth Distance (km) Brightness Sun altitude
Rises 21:07:05 0° 303° (WNW) 2,777 7.9 -16.3°
Reaches altitude 10° 21:09:21 10° 306° (NW) 1,879 6.8 -16.6°
Maximum altitude 21:13:36 67° 29° (NNE) 625 3.1 -17.1°
Enters shadow 21:15:37 30° 105° (ESE) 1,048 3.8 -17.3°
